sat.trackr.live / text

‹ back to catalog

STARLINK-1020

NORAD 44725 · 2019-074N

PAYLOAD ACTIVE UNKNOWN

§ Identity

Operator
Country
US
Launch date
2019-11-11
Launch site
AFETR
Launch vehicle
Mass (kg)
RCS (m²)

Purposes: comms

External: N2YO · Heavens-Above · Gunter

§ Orbital elements

Epoch: 2026-09-19T19:20:32.862624Z

Period
91.75 min
Inclination
53.1532°
Eccentricity
0.0002355
Mean motion
15.69504074 rev/d
Perigee alt
358.7 km
Apogee alt
361.9 km
Semi-major
6,738.5 km
B*
2.9903e-4
RAAN
350.8666°
Arg perigee
14.3864°
Mean anomaly
345.7220°
Rev number
37,865

§ Raw data

STARLINK-10201 44725U 19074N   26262.80593591  .00035487  00000+0  29903-3 0  99932 44725  53.1532 350.8666 0002355  14.3864 345.7220 15.69504074378651

JSON: /api/v1/satellites/44725 · /tle

For live sub-satellite position, see the globe view (requires WebGL).

§ Visibility from observer

Set your observer location to see the next 7 days of passes ≥ 10°. The values pass through the URL so the page stays shareable.

No JS? Fill the form by hand. The geolocation button needs JavaScript.